Simultaneous Nadir Overpasses (SNOs) Predictions

Prediction of SNOs between GOES-14 and AQUA Satellite Orbit:

Table of predicted SNOs for the next 14.0 days since TLE Epoch: 7/12/2019
Index Date Time (GOES-14) GOES-14 Lat,Lon AQUA Lat,Lon Distance(km) Time Diff (sec)
1 07/14/2019 20:32:44 0.21,-104.84 0.36,-104.01 93.33 80
2 07/16/2019 20:20:32 0.21,-104.85 1.00,-101.06 430.90 80
3 07/17/2019 08:39:08 -0.23,-104.68 0.08,-106.22 174.24 80
4 07/19/2019 08:29:36 -0.23,-104.70 -0.56,-103.26 163.59 80
5 07/19/2019 20:48:19 0.26,-104.87 -0.51,-108.46 408.64 80
6 07/21/2019 20:36:07 0.25,-104.88 0.13,-105.50 70.33 80
7 07/23/2019 20:26:35 0.25,-104.90 0.73,-102.54 268.02 80
8 07/24/2019 08:45:10 -0.28,-104.74 0.36,-107.70 336.33 80
9 07/26/2019 08:35:38 -0.28,-104.75 -0.29,-104.74 1.83 80




NCC Satellite Simultaneous Nadir Overpasses (SNOs) Prediction Service
